This is the latest recevied weather packets stored in our database for station/object AD9CI-15. If no packets are shown the sender has not sent any weather packets the latest 10 day(s).
| Time | Temp. | Humidity | Pressure | Rain* | Wind** | Luminosity | Snow |
|---|---|---|---|---|---|---|---|
| 1778015308 | 14.44° C | 30% | 1007.6 hPa | - | - | - | - |
| 1778015062 | 14.44° C | 30% | 1007.6 hPa | - | - | - | - |
| 1778013352 | 13.89° C | 29% | 1007.9 hPa | - | - | - | - |
| 1778013142 | 13.89° C | 29% | 1007.9 hPa | - | - | - | - |
| 1778011745 | 13.89° C | 29% | 1008.1 hPa | - | - | - | - |
| 1778011462 | 13.89° C | 29% | 1008.1 hPa | - | - | - | - |
| 1778009679 | 13.89° C | 32% | 1008.2 hPa | - | - | - | - |
| 1778009542 | 13.89° C | 32% | 1008.2 hPa | - | - | - | - |
| 1778008138 | 14.44° C | 33% | 1007.9 hPa | - | - | - | - |
| 1778007862 | 14.44° C | 33% | 1007.9 hPa | - | - | - | - |
| 1778006080 | 13.33° C | 32% | 1007.9 hPa | - | - | - | - |
| 1778005943 | 13.33° C | 32% | 1007.9 hPa | - | - | - | - |
| 1778004539 | 13.33° C | 30% | 1007.5 hPa | - | - | - | - |
| 1778004263 | 13.33° C | 30% | 1007.5 hPa | - | - | - | - |
| 1778002452 | 13.33° C | 34% | 1007.6 hPa | - | - | - | - |
| 1778002343 | 13.33° C | 34% | 1007.6 hPa | - | - | - | - |
| 1778000779 | 12.78° C | 36% | 1007.4 hPa | - | - | - | - |
| 1778000694 | 12.78° C | 36% | 1007.4 hPa | - | - | - | - |
| 1778000663 | 12.78° C | 36% | 1007.4 hPa | - | - | - | - |
| 1777998849 | 12.78° C | 33% | 1007.6 hPa | - | - | - | - |
| 1777998743 | 12.78° C | 33% | 1007.6 hPa | - | - | - | - |
| 1777997063 | 12.22° C | 37% | 1007.6 hPa | - | - | - | - |
| 1777995239 | 11.67° C | 36% | 1007.7 hPa | - | - | - | - |
| 1777995143 | 11.67° C | 36% | 1007.7 hPa | - | - | - | - |
| 1777993519 | 11.67° C | 37% | 1007.3 hPa | - | - | - | - |
* Rain since midnight (hover to see other rain measurements)
** Current wind speed in m/s (hover to see current wind gust speed)